Weather in Cheremshanka

Russia / Altai Krai     53°11′40″N   86°08′26″E
temp.,
°C
wind,
m/s
gust,
m/s
humid.,
%
clouds,
%
prec.,
mm/h
press.,
hPa
HPBL,
m
17 may, mon
mon1701:00+13ssw1195100 3.2 101311
04:00+12ene1195100 0.8 101211
07:00+14sw12927 1.4 1013137
10:00+18nw347366 0.0 1013913
13:00+18nw3470100 1.1 10131008
16:00+19nw466530 0.6 10131171
19:00+19nw356513 0.7 1014923
22:00+14ne128064 0.2 101510
18 may, tue
tue1801:00+12sse2290100 0.2 101510
04:00+12sw229098 0.0 101357
07:00+13s3108984 0.4 1011273
10:00+19sw7136417 0.0 1008987
13:00+23wsw81452100 0.1 10051895
16:00+22nw8135410 0.1 10041126
19:00+21nnw58578 0.1 1005912
22:00+16e4770100 0.0 1007269
19 may, wed
wed1901:00+12sse228590 0.1 100518
04:00+11sw3898100 1.4 1004260
07:00+13w4109296 1.6 1003472
10:00+14nw4687100 0.2 1003648
13:00+13nnw5679100 1.8 1004904
16:00+11n3769100 0.1 10061000
19:00+11nne4861100 0.1 10071412
22:00+7nnw236396 0.0 100984
20 may, thu
thu2001:00+4n386685 0.0 1009204
04:00+2nnw3766100 0.0 1010169
07:00+4nnw38579 0.0 1012392
10:00+8nw463792 0.0 10122509
13:00+7nw6757100 0.5 10131523
16:00+7n6752100 1.2 10142027
19:00+7nnw663927 1.2 10162276
22:00+2nw31061100 0.0 1020238
21 may, fri
fri2101:00+1w2481100 0.0 102277
04:000w38816 0.0 1023161
07:00+2w2564100 0.0 1024174
10:00+7wsw4546100 0.0 1024884
13:00+9sw5642100 0.0 10231878
16:00+10sw584499 0.0 10211986
19:00+8sw5962100 0.0 10201109
22:00+6ssw31077100 0.0 1017811